User: anonymous   Login
Location: Unspecified
(0.0000°N, 0.0000°E)
Time: 21:22:57
(UTC+02:00)
Language:

NATO 3D Rocket - Orbit

View from above orbital plane
View from above orbital plane
View from above satellite
View from above satellite

Ground track
Ground track

The orbit data is extracted from the following two-line orbital elements,

1 15392U 84115B   15186.51229137  .00000164  00000-0  66687-5 0  9999
2 15392 021.4987 327.6492 1034592 320.0137 085.4741 12.45502701395098
Epoch (UTC): 05 July 2015 12:17:41
Eccentricity: 0.1034592
inclination: 21.4987°
perigee height: 670 km
apogee height: 2296 km
right ascension of ascending node: 327.6492°
argument of perigee: 320.0137°
revolutions per day: 12.45502701
mean anomaly at epoch: 85.4741°
orbit number at epoch: 39509

The dashed part of the orbit path shows where the satellite is in the earth's shadow,  

DLR